User: anonymous   Login
Location: Unspecified
(0.0000°N, 0.0000°E)
Time: 11:42:37
(UTC+00:00)
Language:

XW-2B - Orbit

View from above orbital plane
View from above orbital plane
View from above satellite
View from above satellite

Ground track
Ground track

The orbit data is extracted from the following two-line orbital elements,

1 40911U 15049N   18018.17741725  .00000628  00000-0  37012-4 0  9999
2 40911  97.4588  24.6567 0014259 181.9183 178.1997 15.15063063128687
Epoch (UTC): 18 January 2018 04:15:28
Eccentricity: 0.0014259
inclination: 97.4588°
perigee height: 511 km
apogee height: 530 km
right ascension of ascending node: 24.6567°
argument of perigee: 181.9183°
revolutions per day: 15.15063063
mean anomaly at epoch: 178.1997°
orbit number at epoch: 12868

The dashed part of the orbit path shows where the satellite is in the earth's shadow,  

DLR